Flag for U.S.A. Weather past 2 weeks in Fort Myers, Florida, U.S.A.

Now
55 °F

Clear.


Feels Like: 52 °F
Forecast: 52 / 75 °F
Wind: 10 mph from Northeast

Location: Page Field

Current Time: Mar 29, 2015 at 9:21:12 AM

Latest Report: Mar 29, 2015 at 7:53 AM


Visibility: 10 mi

Pressure: 30.29 "Hg

Humidity: 64%

Dew point: 43 °F

Location of Fort MyersLocation

Historic Weather in Fort Myers — Graph

°F

Fort Myers temperature yesterday

Maximum temperature yesterday: 71 °F (at 2:53 PM)
Minimum temperature yesterday: 58 °F (at 8:53 AM)
Average temperature yesterday: 64 °F

Past Weeks' High & Low Weather Summary

 TemperatureHumidityPressure
High88 °F (Mar 16, 3:53 PM)100% (Mar 14, 7:53 AM)30.29 "Hg (Mar 14, 7:53 AM)
Low54 °F (Mar 29, 5:53 AM)35% (Mar 28, 4:53 PM)29.88 "Hg (Mar 27, 8:53 AM)
Average74 °F75%30.05 "Hg
* Reported Mar 14 7:53 AM — Mar 29 7:53 AM, Fort Myers, Weather by CustomWeather, © 2015

Note: Actual official high and low records may vary slightly from our data, if they occured in-between our weather recording intervals... More about our weather records

Advertising

Fort Myers weather history for previous 24 hours

 ConditionsComfort  
Time TempWeatherWind HumidityBarometerVisibility
7:53 AM
Sun, Mar 29
55 °FClear.10 mph64%30.29 "Hg10 mi
6:53 AM55 °FClear.7 mph67%30.27 "Hg10 mi
5:53 AM54 °FClear.5 mph72%30.24 "Hg10 mi
4:53 AM56 °FClear.7 mph65%30.22 "Hg10 mi
3:53 AM56 °FClear.3 mph67%30.23 "Hg10 mi
2:53 AM57 °FClear.6 mph62%30.23 "Hg10 mi
1:53 AM58 °FClear.7 mph60%30.24 "Hg10 mi
12:53 AM59 °FClear.8 mph60%30.26 "Hg10 mi
11:53 PM
Sat, Mar 28
60 °FClear.7 mph56%30.25 "Hg10 mi
10:53 PM60 °FClear.7 mph58%30.24 "Hg10 mi
9:53 PM61 °FClear.6 mph56%30.22 "Hg10 mi
8:53 PM63 °FClear.10 mph52%30.20 "Hg10 mi
7:53 PM64 °FSunny.13 mph49%30.17 "Hg10 mi
6:53 PM68 °FSunny.8 mph36%30.16 "Hg10 mi
5:53 PM69 °FSunny.14 mph36%30.14 "Hg10 mi
4:53 PM70 °FSunny.15 mph35%30.13 "Hg10 mi
3:53 PM71 °FSunny.13 mph39%30.13 "Hg10 mi
2:53 PM71 °FSunny.15 mph39%30.15 "Hg10 mi
1:53 PM70 °FSunny.12 mph41%30.16 "Hg10 mi
12:53 PM69 °FSunny.15 mph42%30.18 "Hg10 mi
11:53 AM68 °FSunny.15 mph44%30.18 "Hg10 mi
10:53 AM64 °FSunny.10 mph52%30.18 "Hg10 mi
9:53 AM61 °FSunny.8 mph54%30.16 "Hg10 mi
Weather by CustomWeather, © 2015

See weather overviewHow to use our weather pages